Location: Newark
(44.9333°N, 0.5667°E)
Time: 22:34:17
(UTC+00:00)

N. Korean satellite - Visible Passes

Search period start: 27 January 2021 00:00
Search period end: 06 February 2021 00:00
Orbit: 452 x 502 km, 97.2° (Epoch: 27 January)

Date Brightness Start Highest point End Pass type
(mag) Time Alt. Az. Time Alt. Az. Time Alt. Az.
27 Jan 6.5 05:26:21 10° NNE 05:29:49 78° ESE 05:33:13 10° S visible
27 Jan 9.8 17:37:28 10° SW 17:39:42 15° W 17:41:55 10° NW visible
28 Jan 8.1 05:00:00 10° NNE 05:03:09 33° E 05:06:16 10° SSE visible
28 Jan 8.1 06:34:05 10° NNW 06:36:12 16° WNW 06:38:18 10° WSW visible
29 Jan 9.4 04:34:09 10° NE 04:36:23 16° E 04:38:35 10° SE visible
29 Jan 7.2 06:06:43 10° N 06:09:47 30° WNW 06:12:49 10° SW visible
30 Jan 6.3 05:39:51 10° N 05:43:16 68° WNW 05:46:39 10° SSW visible
30 Jan 10.4 17:52:32 10° WSW 17:53:19 11° W 17:54:05 10° WNW visible
31 Jan 7.3 05:13:17 10° NNE 05:16:39 51° E 05:19:58 10° S visible
01 Feb 8.9 04:47:07 10° NE 04:49:55 23° E 04:52:41 10° SSE visible
01 Feb 7.7 06:20:29 10° NNW 06:23:09 21° WNW 06:25:47 10° WSW visible
02 Feb 9.9 04:21:58 10° ENE 04:23:05 11° E 04:24:11 10° ESE visible
02 Feb 6.7 05:53:23 10° N 05:56:40 44° WNW 05:59:54 10° SW visible
03 Feb 6.4 05:26:38 10° NNE 05:30:04 79° ESE 05:33:28 10° S visible
03 Feb 9.9 17:37:54 10° SW 17:39:59 15° W 17:42:05 10° NW visible
04 Feb 8.1 05:00:13 10° NNE 05:03:23 34° E 05:06:30 10° SSE visible
04 Feb 8.1 06:34:22 10° NNW 06:36:25 15° WNW 06:38:28 10° WSW visible
05 Feb 9.4 04:34:20 10° NE 04:36:35 16° E 04:38:48 10° SE visible
05 Feb 7.2 06:06:57 10° N 06:09:59 30° WNW 06:12:58 10° SW visible
